Flag for U.S.A. Weather past 2 weeks in Alpena, Michigan, U.S.A.

Now
64 °F

Clear.


Feels Like: 64 °F
Forecast: 62 / 79 °F
Wind: No wind

Location: Alpena County Regional Airport

Current Time: Jul 5, 2015 at 11:21:15 PM

Latest Report: Jul 5, 2015 at 10:54 PM


Visibility: 10 mi

Pressure: 30.04 "Hg

Humidity: 78%

Dew point: 57 °F

Location of AlpenaLocation

Historic Weather in Alpena — Graph

°F

Alpena temperature yesterday

Maximum temperature yesterday: 80 °F (at 2:54 PM)
Minimum temperature yesterday: 57 °F (at 11:54 PM)
Average temperature yesterday: 68 °F

Past Weeks' High & Low Weather Summary

 TemperatureHumidityPressure
High82 °F (Jun 24, 2:54 PM)100% (Jun 26, 3:54 AM)30.16 "Hg (Jun 26, 3:54 AM)
Low45 °F (Jul 2, 5:54 AM)27% (Jul 2, 6:54 PM)29.56 "Hg (Jun 23, 12:54 AM)
Average64 °F71%29.95 "Hg
* Reported Jun 20 9:54 PM — Jul 5 9:54 PM, Alpena, Weather by CustomWeather, © 2015

Note: Actual official high and low records may vary slightly from our data, if they occured in-between our weather recording intervals... More about our weather records

Advertising

Alpena weather history for previous 24 hours

 ConditionsComfort  
Time TempWeatherWind HumidityBarometerVisibility
9:54 PM
Sun, Jul 5
66 °FLight rain. Sunny.7 mph81%30.03 "Hg6 mi
8:54 PM69 °FSunny.No wind73%30.04 "Hg10 mi
7:54 PM72 °FSunny.6 mph66%30.05 "Hg10 mi
6:54 PM75 °FSunny.7 mph58%30.05 "Hg10 mi
5:54 PM78 °FSunny.9 mph52%30.06 "Hg10 mi
4:54 PM79 °FSunny.10 mph52%30.07 "Hg10 mi
3:54 PM79 °FSunny.10 mph52%30.08 "Hg10 mi
2:54 PM78 °FSunny.12 mph54%30.08 "Hg10 mi
1:54 PM78 °FSunny.9 mph54%30.09 "Hg10 mi
12:54 PM78 °FSunny.10 mph52%30.09 "Hg10 mi
11:54 AM79 °FSunny.3 mph45%30.10 "Hg10 mi
10:54 AM75 °FSunny.6 mph54%30.11 "Hg10 mi
9:54 AM69 °FSunny.3 mph68%30.12 "Hg10 mi
8:54 AM62 °FSunny.No wind83%30.11 "Hg10 mi
7:54 AM57 °FSunny.No wind90%30.09 "Hg7 mi
6:54 AM50 °FSunny.No wind89%30.08 "Hg10 mi
5:54 AM50 °FClear.No wind93%30.07 "Hg10 mi
4:54 AM50 °FFog.No wind93%30.07 "Hg6 mi
3:54 AM52 °FClear.No wind89%30.07 "Hg8 mi
2:54 AM51 °FClear.No wind92%30.07 "Hg10 mi
1:54 AM54 °FClear.No wind90%30.05 "Hg10 mi
12:54 AM55 °FClear.No wind93%30.04 "Hg10 mi
11:54 PM
Sat, Jul 4
57 °FClear.No wind90%30.03 "Hg10 mi
Weather by CustomWeather, © 2015

See weather overviewHow to use our weather pages